When you browse on this site, cookies collect data to enhance your experience and personalize the content and advertising you see.
Visit our Privacy Policy to learn more. By continuing to use the site, you agree to this use of cookies and data.
  • In Romania
  • List of Countries
  • For 7 days
  • Water Temperature
  • Satellite Maps
  • Weather Map
  • Weather Widgets
  • user-avatar
    Login

    Hourly Weather Canillo

    Today, 16 January, Wednesday

    Time Temperature Precipitation Wind Pressure Humidity
    00:00 0°C° 0 mm 1 mps 616 mmHg 39%
    01:00 0°C° 0 mm 1 mps 616 mmHg 37%
    02:00 0°C° 0 mm 1 mps 616 mmHg 34%
    03:00 0°C° 0 mm 1 mps 615 mmHg 32%
    04:00 0°C° 0 mm 1 mps 615 mmHg 32%
    05:00 0°C° 0 mm 1 mps 615 mmHg 32%
    06:00 0°C° 0 mm 1 mps 615 mmHg 33%
    07:00 +1°C° 0 mm 1 mps 615 mmHg 34%
    08:00 +3°C° 0 mm 1 mps 616 mmHg 35%
    09:00 +4°C° 0 mm 1 mps 616 mmHg 37%
    10:00 +5°C° 0 mm 1 mps 617 mmHg 37%
    11:00 +7°C° 0 mm 1 mps 617 mmHg 38%
    12:00 +8°C° 0 mm 1 mps 618 mmHg 38%
    13:00 +8°C° 0 mm 1 mps 617 mmHg 42%
    14:00 +7°C° 0 mm 1 mps 617 mmHg 46%
    15:00 +7°C° 0 mm 1 mps 616 mmHg 50%
    16:00 +4°C° 0 mm 1 mps 615 mmHg 58%
    17:00 +2°C° 0 mm 1 mps 615 mmHg 67%
    18:00 -1°C° 0 mm 0 mps 614 mmHg 75%
    19:00 -1°C° 0 mm 0 mps 614 mmHg 76%
    20:00 -2°C° 0 mm 0 mps 614 mmHg 76%
    21:00 -2°C° 0 mm 0 mps 614 mmHg 76%
    22:00 -2°C° 0 mm 0 mps 614 mmHg 76%
    23:00 -2°C° 0 mm 0 mps 614 mmHg 76%

    Tomorrow, 17 January, Thursday

    Time Temperature Precipitation Wind Pressure Humidity
    00:00 -2°C° 0 mm 0 mps 614 mmHg 76%
    01:00 -3°C° 0 mm 0 mps 614 mmHg 76%
    02:00 -2°C° 0 mm 1 mps 614 mmHg 76%
    03:00 -2°C° 0 mm 1 mps 613 mmHg 76%
    04:00 -2°C° 0 mm 1 mps 613 mmHg 78%
    05:00 -2°C° 0 mm 1 mps 613 mmHg 81%
    06:00 -2°C° 0 mm 1 mps 613 mmHg 84%
    07:00 -1°C° 0 mm 1 mps 614 mmHg 83%
    08:00 0°C° 0 mm 1 mps 615 mmHg 82%
    09:00 -1°C° 0 mm 2 mps 615 mmHg 81%
    10:00 -1°C° 0.6 mm 2 mps 615 mmHg 80%
    11:00 -1°C° 0.6 mm 2 mps 615 mmHg 80%
    12:00 -1°C° 0.6 mm 2 mps 615 mmHg 80%
    13:00 -1°C° 0.3 mm 2 mps 615 mmHg 79%
    14:00 -2°C° 0.3 mm 2 mps 615 mmHg 79%
    15:00 -2°C° 0.3 mm 2 mps 615 mmHg 79%
    16:00 -3°C° 0.1 mm 2 mps 614 mmHg 81%
    17:00 -5°C° 0.1 mm 2 mps 614 mmHg 83%
    18:00 -6°C° 0.1 mm 2 mps 613 mmHg 85%
    19:00 -6°C° 0 mm 2 mps 614 mmHg 85%
    20:00 -7°C° 0 mm 2 mps 614 mmHg 84%
    21:00 -7°C° 0 mm 2 mps 614 mmHg 83%
    22:00 -7°C° 0 mm 2 mps 614 mmHg 85%
    23:00 -7°C° 0 mm 2 mps 614 mmHg 87%

    Day after tomorrow, 18 January, Friday

    Time Temperature Precipitation Wind Pressure Humidity
    00:00 -6°C° 0 mm 1 mps 614 mmHg 89%
    01:00 -7°C° 0 mm 2 mps 614 mmHg 89%
    02:00 -7°C° 0 mm 2 mps 614 mmHg 89%
    03:00 -7°C° 0 mm 2 mps 613 mmHg 89%
    04:00 -8°C° 0 mm 2 mps 613 mmHg 89%
    05:00 -8°C° 0 mm 2 mps 613 mmHg 90%
    06:00 -8°C° 0 mm 2 mps 613 mmHg 90%
    07:00 -6°C° 0 mm 1 mps 614 mmHg 84%
    08:00 -3°C° 0 mm 1 mps 614 mmHg 78%
    09:00 -2°C° 0 mm 1 mps 614 mmHg 72%
    10:00 -1°C° 0 mm 1 mps 615 mmHg 64%
    11:00 0°C° 0 mm 1 mps 615 mmHg 56%
    12:00 +1°C° 0 mm 1 mps 615 mmHg 48%
    13:00 +1°C° 0 mm 1 mps 615 mmHg 51%
    14:00 0°C° 0 mm 1 mps 614 mmHg 54%
    15:00 0°C° 0 mm 1 mps 614 mmHg 57%
    16:00 -1°C° 0 mm 1 mps 614 mmHg 64%
    17:00 -2°C° 0 mm 1 mps 613 mmHg 71%
    18:00 -4°C° 0 mm 0 mps 613 mmHg 79%
    19:00 -4°C° 0 mm 0 mps 613 mmHg 78%
    20:00 -4°C° 0 mm 1 mps 613 mmHg 78%
    21:00 -4°C° 0 mm 1 mps 613 mmHg 77%
    22:00 -4°C° 0 mm 1 mps 612 mmHg 76%
    23:00 -4°C° 0 mm 1 mps 612 mmHg 74%

    19 January, Saturday

    Time Temperature Precipitation Wind Pressure Humidity
    00:00 -6°C° 0 mm 1 mps 612 mmHg 73%
    01:00 -6°C° 0 mm 1 mps 612 mmHg 72%
    02:00 -4°C° 0 mm 1 mps 612 mmHg 72%
    03:00 -4°C° 0 mm 1 mps 611 mmHg 72%
    04:00 -4°C° 0 mm 1 mps 611 mmHg 73%
    05:00 -4°C° 0 mm 1 mps 611 mmHg 74%
    06:00 -4°C° 0 mm 1 mps 611 mmHg 74%
    07:00 -3°C° 0 mm 1 mps 612 mmHg 73%
    08:00 -2°C° 0 mm 0 mps 612 mmHg 71%
    09:00 -1°C° 0 mm 0 mps 613 mmHg 70%
    10:00 +1°C° 0 mm 1 mps 613 mmHg 66%
    11:00 +2°C° 0 mm 1 mps 613 mmHg 62%
    12:00 +3°C° 0 mm 1 mps 614 mmHg 58%
    13:00 +3°C° 0.1 mm 1 mps 613 mmHg 60%
    14:00 +2°C° 0.1 mm 1 mps 612 mmHg 63%
    15:00 +2°C° 0.1 mm 1 mps 611 mmHg 66%
    16:00 0°C° 0.1 mm 1 mps 611 mmHg 74%
    17:00 -1°C° 0.1 mm 1 mps 610 mmHg 82%
    18:00 -3°C° 0.1 mm 1 mps 610 mmHg 90%
    19:00 -3°C° 0 mm 1 mps 610 mmHg 90%
    20:00 -3°C° 0 mm 1 mps 610 mmHg 89%
    21:00 -4°C° 0 mm 1 mps 609 mmHg 88%
    22:00 -4°C° 0 mm 1 mps 609 mmHg 88%
    23:00 -3°C° 0 mm 1 mps 609 mmHg 88%

    20 January, Sunday

    Time Temperature Precipitation Wind Pressure Humidity
    00:00 -3°C° 0 mm 1 mps 610 mmHg 88%
    01:00 -3°C° 0.1 mm 1 mps 610 mmHg 89%
    02:00 -3°C° 0.1 mm 1 mps 610 mmHg 90%
    03:00 -4°C° 0.1 mm 2 mps 610 mmHg 92%
    04:00 -5°C° 0 mm 2 mps 610 mmHg 92%
    05:00 -5°C° 0 mm 2 mps 610 mmHg 92%
    06:00 -5°C° 0 mm 2 mps 610 mmHg 92%
    07:00 -5°C° 0 mm 2 mps 611 mmHg 87%
    08:00 -4°C° 0 mm 2 mps 611 mmHg 82%
    09:00 -4°C° 0 mm 2 mps 612 mmHg 77%
    10:00 -2°C° 0 mm 2 mps 612 mmHg 72%
    11:00 -1°C° 0 mm 2 mps 613 mmHg 66%
    12:00 +1°C° 0 mm 2 mps 613 mmHg 61%
    13:00 -1°C° 0 mm 2 mps 613 mmHg 62%
    14:00 -1°C° 0 mm 2 mps 613 mmHg 64%
    15:00 -1°C° 0 mm 2 mps 613 mmHg 65%
    16:00 -2°C° 0 mm 2 mps 612 mmHg 73%
    17:00 -2°C° 0 mm 1 mps 612 mmHg 81%
    18:00 -4°C° 0 mm 1 mps 612 mmHg 89%
    19:00 -3°C° 0.3 mm 1 mps 612 mmHg 89%
    20:00 -3°C° 0.3 mm 1 mps 613 mmHg 89%
    21:00 -3°C° 0.3 mm 1 mps 613 mmHg 89%
    22:00 -2°C° 0.5 mm 1 mps 613 mmHg 90%
    23:00 -4°C° 0.5 mm 2 mps 614 mmHg 91%

    21 January, Monday

    Time Temperature Precipitation Wind Pressure Humidity
    00:00 -4°C° 0.5 mm 2 mps 614 mmHg 92%
    01:00 -5°C° 0.2 mm 2 mps 614 mmHg 92%
    02:00 -5°C° 0.2 mm 2 mps 614 mmHg 93%
    03:00 -5°C° 0.2 mm 2 mps 614 mmHg 93%
    04:00 -5°C° 0.1 mm 2 mps 614 mmHg 92%
    05:00 -6°C° 0.1 mm 2 mps 614 mmHg 92%
    06:00 -6°C° 0.1 mm 2 mps 614 mmHg 92%
    07:00 -6°C° 0.1 mm 2 mps 615 mmHg 88%
    08:00 -5°C° 0.1 mm 2 mps 615 mmHg 85%
    09:00 -5°C° 0.1 mm 2 mps 615 mmHg 81%
    10:00 -4°C° 0.1 mm 2 mps 615 mmHg 78%
    11:00 -4°C° 0.1 mm 2 mps 616 mmHg 75%
    12:00 -3°C° 0.1 mm 2 mps 616 mmHg 72%
    13:00 -3°C° 0.1 mm 2 mps 615 mmHg 72%
    14:00 -4°C° 0.1 mm 2 mps 615 mmHg 71%
    15:00 -4°C° 0.1 mm 2 mps 615 mmHg 71%
    16:00 -5°C° 0 mm 2 mps 614 mmHg 78%
    17:00 -6°C° 0 mm 2 mps 614 mmHg 84%
    18:00 -8°C° 0 mm 2 mps 613 mmHg 91%
    19:00 -8°C° 0.1 mm 2 mps 613 mmHg 90%
    20:00 -8°C° 0.1 mm 2 mps 614 mmHg 90%
    21:00 -8°C° 0.1 mm 2 mps 614 mmHg 89%
    22:00 -8°C° 0.1 mm 2 mps 613 mmHg 89%
    23:00 -8°C° 0.1 mm 2 mps 613 mmHg 89%
    Show more